Location: Dal�� Lhota
(48.7500°N, 14.0167°E)
Time: 22:55:10
(UTC+00:00)

NOSS 3-4 (A) - Pass Details

Date: 24 September 2020
Orbit: 886 x 1326 km, 63.4° (Epoch: 22 October)

Event Time Altitude Azimuth Distance (km) Brightness Sun altitude
Rises 18:04:58 0° 190° (S) 3,477 6.4 -12.0°
Reaches altitude 10° 18:07:35 10° 182° (S) 2,552 5.6 -12.4°
Maximum altitude 18:12:53 36° 117° (ESE) 1,412 3.9 -13.2°
Drops below altitude 10° 18:18:30 10° 53° (NE) 2,709 5.5 -14.1°
Sets 18:21:21 0° 45° (NE) 3,720 6.3 -14.6°
